Simultaneous Nadir Overpasses (SNOs) Predictions

Prediction of SNOs between GOES-15 and TERRA Satellite Orbit:

Table of predicted SNOs for the next 14.0 days since TLE Epoch: 9/24/2016
Index Date Time (GOES-15) GOES-15 Lat,Lon TERRA Lat,Lon Distance(km) Time Diff (sec)
1 09/24/2016 07:37:12 0.32,-135.42 0.12,-136.37 107.97 80
2 09/26/2016 07:22:20 0.31,-135.39 0.71,-133.40 225.85 80
3 09/26/2016 19:43:36 -0.32,-135.42 0.36,-138.57 357.62 80
4 09/28/2016 19:31:24 -0.32,-135.40 -0.26,-135.61 23.91 80
5 09/30/2016 19:21:52 -0.32,-135.37 -0.88,-132.65 309.64 80
6 10/01/2016 07:43:16 0.32,-135.34 -0.22,-137.84 284.86 80
7 10/03/2016 07:28:24 0.32,-135.30 0.43,-134.89 48.17 80
8 10/05/2016 07:16:11 0.31,-135.26 1.04,-131.92 380.53 80
9 10/05/2016 19:37:26 -0.32,-135.28 0.07,-137.07 204.10 80
10 10/07/2016 19:27:53 -0.31,-135.23 -0.55,-134.11 127.70 80




NCC Satellite Simultaneous Nadir Overpasses (SNOs) Prediction Service
